When you browse on this site, cookies collect data to enhance your experience and personalize the content and advertising you see.
Visit our Privacy Policy to learn more. By continuing to use the site, you agree to this use of cookies and data.
  • In Romania
  • List of Countries
  • For 7 days
  • Water Temperature
  • Satellite Maps
  • Weather Map
  • Weather Widgets
  • user-avatar
    Login

    Hourly Weather Kaftyrevo

    Today, 23 April, Tuesday

    Time Temperature Precipitation Wind Pressure Humidity
    00:00 +8°C° 0 mm 2 mps 748 mmHg 70%
    01:00 +7°C° 0 mm 2 mps 748 mmHg 71%
    02:00 +7°C° 0 mm 2 mps 748 mmHg 73%
    03:00 +7°C° 0 mm 2 mps 748 mmHg 73%
    04:00 +7°C° 0 mm 2 mps 748 mmHg 73%
    05:00 +7°C° 0 mm 2 mps 749 mmHg 73%
    06:00 +9°C° 0 mm 2 mps 749 mmHg 66%
    07:00 +12°C° 0 mm 2 mps 749 mmHg 60%
    08:00 +14°C° 0 mm 2 mps 749 mmHg 54%
    09:00 +14°C° 0 mm 3 mps 749 mmHg 48%
    10:00 +17°C° 0 mm 3 mps 749 mmHg 42%
    11:00 +18°C° 0 mm 3 mps 749 mmHg 36%
    12:00 +18°C° 0 mm 3 mps 749 mmHg 36%
    13:00 +19°C° 0 mm 3 mps 749 mmHg 35%
    14:00 +19°C° 0 mm 3 mps 748 mmHg 34%
    15:00 +19°C° 0 mm 3 mps 748 mmHg 37%
    16:00 +18°C° 0 mm 2 mps 748 mmHg 40%
    17:00 +18°C° 0 mm 2 mps 748 mmHg 43%
    18:00 +16°C° 0 mm 2 mps 748 mmHg 49%
    19:00 +14°C° 0 mm 2 mps 748 mmHg 55%
    20:00 +12°C° 0 mm 2 mps 748 mmHg 61%
    21:00 +12°C° 0 mm 2 mps 748 mmHg 62%
    22:00 +10°C° 0 mm 2 mps 748 mmHg 64%
    23:00 +10°C° 0 mm 2 mps 748 mmHg 65%

    Tomorrow, 24 April, Wednesday

    Time Temperature Precipitation Wind Pressure Humidity
    00:00 +9°C° 0 mm 2 mps 748 mmHg 66%
    01:00 +9°C° 0 mm 2 mps 749 mmHg 68%
    02:00 +9°C° 0 mm 1 mps 749 mmHg 69%
    03:00 +9°C° 0 mm 1 mps 749 mmHg 70%
    04:00 +9°C° 0 mm 1 mps 749 mmHg 71%
    05:00 +9°C° 0 mm 1 mps 749 mmHg 73%
    06:00 +11°C° 0 mm 1 mps 749 mmHg 66%
    07:00 +13°C° 0 mm 1 mps 749 mmHg 59%
    08:00 +15°C° 0 mm 2 mps 750 mmHg 52%
    09:00 +17°C° 0 mm 2 mps 749 mmHg 48%
    10:00 +18°C° 0 mm 2 mps 749 mmHg 43%
    11:00 +19°C° 0 mm 2 mps 749 mmHg 39%
    12:00 +20°C° 0 mm 2 mps 749 mmHg 38%
    13:00 +20°C° 0 mm 2 mps 749 mmHg 37%
    14:00 +21°C° 0 mm 2 mps 749 mmHg 36%
    15:00 +21°C° 0 mm 2 mps 749 mmHg 38%
    16:00 +20°C° 0 mm 2 mps 748 mmHg 40%
    17:00 +21°C° 0 mm 1 mps 748 mmHg 42%
    18:00 +19°C° 0 mm 1 mps 748 mmHg 48%
    19:00 +16°C° 0 mm 1 mps 748 mmHg 54%
    20:00 +14°C° 0 mm 1 mps 748 mmHg 60%
    21:00 +13°C° 0 mm 1 mps 748 mmHg 62%
    22:00 +12°C° 0 mm 1 mps 748 mmHg 64%
    23:00 +12°C° 0 mm 1 mps 748 mmHg 65%

    Day after tomorrow, 25 April, Thursday

    Time Temperature Precipitation Wind Pressure Humidity
    00:00 +10°C° 0 mm 0 mps 748 mmHg 66%
    01:00 +10°C° 0 mm 0 mps 748 mmHg 67%
    02:00 +9°C° 0 mm 0 mps 748 mmHg 68%
    03:00 +9°C° 0 mm 0 mps 748 mmHg 69%
    04:00 +9°C° 0 mm 0 mps 748 mmHg 69%
    05:00 +9°C° 0 mm 0 mps 748 mmHg 70%
    06:00 +11°C° 0 mm 0 mps 748 mmHg 63%
    07:00 +14°C° 0 mm 0 mps 748 mmHg 56%
    08:00 +16°C° 0 mm 0 mps 748 mmHg 50%
    09:00 +17°C° 0 mm 0 mps 748 mmHg 47%
    10:00 +20°C° 0 mm 1 mps 748 mmHg 44%
    11:00 +22°C° 0 mm 1 mps 748 mmHg 42%
    12:00 +22°C° 0 mm 1 mps 748 mmHg 40%
    13:00 +22°C° 0 mm 1 mps 747 mmHg 39%
    14:00 +22°C° 0 mm 1 mps 747 mmHg 38%
    15:00 +21°C° 0 mm 1 mps 747 mmHg 43%
    16:00 +20°C° 0 mm 1 mps 746 mmHg 48%
    17:00 +18°C° 0 mm 1 mps 746 mmHg 53%
    18:00 +15°C° 0 mm 0 mps 746 mmHg 56%
    19:00 +14°C° 0 mm 0 mps 746 mmHg 59%
    20:00 +13°C° 0 mm 0 mps 746 mmHg 62%
    21:00 +12°C° 0 mm 0 mps 746 mmHg 63%
    22:00 +12°C° 0 mm 0 mps 746 mmHg 63%
    23:00 +12°C° 0 mm 0 mps 746 mmHg 64%

    26 April, Friday

    Time Temperature Precipitation Wind Pressure Humidity
    00:00 +11°C° 0 mm 0 mps 746 mmHg 65%
    01:00 +11°C° 0 mm 0 mps 746 mmHg 66%
    02:00 +11°C° 0 mm 0 mps 746 mmHg 67%
    03:00 +11°C° 0 mm 0 mps 746 mmHg 68%
    04:00 +11°C° 0 mm 0 mps 746 mmHg 68%
    05:00 +11°C° 0 mm 0 mps 746 mmHg 69%
    06:00 +13°C° 0 mm 1 mps 746 mmHg 65%
    07:00 +15°C° 0 mm 1 mps 746 mmHg 60%
    08:00 +16°C° 0 mm 1 mps 746 mmHg 56%
    09:00 +18°C° 0 mm 1 mps 746 mmHg 52%
    10:00 +18°C° 0 mm 2 mps 746 mmHg 48%
    11:00 +19°C° 0 mm 2 mps 745 mmHg 44%
    12:00 +19°C° 0 mm 2 mps 745 mmHg 44%
    13:00 +19°C° 0 mm 2 mps 745 mmHg 43%
    14:00 +20°C° 0 mm 2 mps 745 mmHg 42%
    15:00 +19°C° 0 mm 2 mps 744 mmHg 44%
    16:00 +20°C° 0 mm 1 mps 744 mmHg 45%
    17:00 +20°C° 0 mm 1 mps 744 mmHg 47%
    18:00 +18°C° 0 mm 1 mps 744 mmHg 53%
    19:00 +15°C° 0 mm 1 mps 744 mmHg 59%
    20:00 +14°C° 0 mm 1 mps 743 mmHg 65%
    21:00 +13°C° 0 mm 1 mps 743 mmHg 68%
    22:00 +13°C° 0 mm 1 mps 743 mmHg 71%
    23:00 +12°C° 0 mm 1 mps 743 mmHg 74%

    27 April, Saturday

    Time Temperature Precipitation Wind Pressure Humidity
    00:00 +12°C° 0 mm 1 mps 743 mmHg 74%
    01:00 +12°C° 0 mm 1 mps 742 mmHg 74%
    02:00 +12°C° 0 mm 1 mps 742 mmHg 75%
    03:00 +12°C° 0.3 mm 1 mps 742 mmHg 78%
    04:00 +12°C° 0.3 mm 1 mps 742 mmHg 81%
    05:00 +11°C° 0.3 mm 1 mps 742 mmHg 84%
    06:00 +12°C° 0.3 mm 1 mps 741 mmHg 82%
    07:00 +13°C° 0.3 mm 1 mps 741 mmHg 80%
    08:00 +13°C° 0.3 mm 1 mps 741 mmHg 79%
    09:00 +15°C° 0.1 mm 1 mps 741 mmHg 72%
    10:00 +16°C° 0.1 mm 2 mps 740 mmHg 66%
    11:00 +18°C° 0.1 mm 2 mps 740 mmHg 60%
    12:00 +19°C° 0.2 mm 2 mps 740 mmHg 55%
    13:00 +20°C° 0.2 mm 2 mps 739 mmHg 50%
    14:00 +21°C° 0.2 mm 2 mps 739 mmHg 45%
    15:00 +20°C° 0.4 mm 2 mps 739 mmHg 47%
    16:00 +21°C° 0.4 mm 1 mps 739 mmHg 49%
    17:00 +21°C° 0.4 mm 1 mps 738 mmHg 51%
    18:00 +19°C° 0 mm 1 mps 738 mmHg 57%
    19:00 +16°C° 0 mm 1 mps 738 mmHg 63%
    20:00 +14°C° 0 mm 1 mps 738 mmHg 69%
    21:00 +13°C° 0 mm 1 mps 738 mmHg 73%
    22:00 +12°C° 0 mm 1 mps 738 mmHg 77%
    23:00 +12°C° 0 mm 1 mps 738 mmHg 80%

    28 April, Sunday

    Time Temperature Precipitation Wind Pressure Humidity
    00:00 +11°C° 0 mm 1 mps 738 mmHg 83%
    01:00 +11°C° 0 mm 1 mps 738 mmHg 86%
    02:00 +10°C° 0 mm 1 mps 738 mmHg 89%
    03:00 +10°C° 0 mm 1 mps 738 mmHg 89%
    04:00 +9°C° 0 mm 0 mps 738 mmHg 90%
    05:00 +9°C° 0 mm 0 mps 738 mmHg 90%
    06:00 +11°C° 0 mm 0 mps 738 mmHg 82%
    07:00 +14°C° 0 mm 1 mps 738 mmHg 74%
    08:00 +16°C° 0 mm 1 mps 738 mmHg 66%
    09:00 +19°C° 0 mm 1 mps 738 mmHg 60%
    10:00 +19°C° 0 mm 2 mps 738 mmHg 54%
    11:00 +20°C° 0 mm 2 mps 738 mmHg 49%
    12:00 +21°C° 0.1 mm 2 mps 738 mmHg 48%
    13:00 +21°C° 0.1 mm 2 mps 738 mmHg 48%
    14:00 +21°C° 0.1 mm 2 mps 738 mmHg 47%
    15:00 +20°C° 0.5 mm 2 mps 738 mmHg 53%
    16:00 +19°C° 0.5 mm 3 mps 738 mmHg 59%
    17:00 +18°C° 0.5 mm 3 mps 738 mmHg 64%
    18:00 +17°C° 0 mm 3 mps 738 mmHg 72%
    19:00 +15°C° 0 mm 2 mps 738 mmHg 80%
    20:00 +14°C° 0 mm 2 mps 738 mmHg 88%
    21:00 +13°C° 0 mm 2 mps 739 mmHg 89%
    22:00 +12°C° 0 mm 3 mps 739 mmHg 91%
    23:00 +11°C° 0 mm 3 mps 739 mmHg 92%
    Show more